Centralia, IL

4:16 AM CDT on July 27, 2017 (GMT -0500)
Centralia Municipal

Weather History for KENL - November, 2013

Change the Weather History Date:

Sunday, November 24, 2013

  Actual Average (KSLO) Record (KSLO)
Temperature  
Mean Temperature 25 °F -  
Max Temperature 32 °F 50 °F 73 °F (1966)
Min Temperature 18 °F 30 °F 12 °F (1970)
Degree Days  
Heating Degree Days 40    
Moisture  
Dew Point 14 °F    
Average Humidity 63    
Maximum Humidity 82    
Minimum Humidity 35    
Precipitation  
Precipitation 0.00 in - - ()
Sea Level Pressure  
Sea Level Pressure 30.64 in    
Wind  
Wind Speed 4 mph (NNE)    
Max Wind Speed 10 mph    
Max Gust Speed -    
Visibility 10 miles    
Events      
Averages and records for this station are not official NWS values.
T = Trace of Precipitation, MM = Missing Value Source: NWS Daily Summary

Daily Weather History Graph

Daily Weather History Graph

Search for Another Location

Airport or City:

Trip Planner

Search our weather history database for the weather conditions in past years. The results will help you decide how hot, cold, wet, or windy it might be!

Date:

Astronomy

Nov. 24, 2013 Rise Set
Actual Time 6:48 AM CST 4:37 PM CST
Civil Twilight 6:19 AM CST 5:06 PM CST
Nautical Twilight 5:46 AM CST 5:39 PM CST
Astronomical Twilight 5:14 AM CST 6:11 PM CST
Moon 11:01 PM CST (11/24) 11:37 AM CST (11/24)
Length of Visible Light 10h 47m
Length of Day
9h 49m
Waning Gibbous, 60% of the Moon is Illuminated
Nov 24
Waning Gibbous
Nov 25
Last Quarter
Dec 2
New
Dec 9
First Quarter
Dec 17
Full

Hourly Weather History & Observations

Time (CST) Temp. Windchill Dew Point Humidity Pressure Visibility Wind Dir Wind Speed Gust Speed Precip Events Conditions
12:15 AM 23.0 °F 14.7 °F 14.5 °F 70% 30.68 in 10.0 mi North 6.9 mph - N/A   Clear
12:35 AM 22.8 °F 14.5 °F 14.5 °F 71% 30.69 in 10.0 mi North 6.9 mph - N/A   Clear
12:55 AM 22.6 °F 15.3 °F 14.2 °F 70% 30.69 in 10.0 mi North 5.8 mph - N/A   Clear
1:15 AM 21.9 °F 17.2 °F 14.0 °F 72% 30.69 in 10.0 mi North 3.5 mph - N/A   Clear
1:35 AM 21.7 °F 15.5 °F 14.0 °F 72% 30.69 in 10.0 mi North 4.6 mph - N/A   Clear
1:55 AM 21.2 °F 14.9 °F 14.0 °F 74% 30.70 in 10.0 mi North 4.6 mph - N/A   Clear
2:15 AM 21.2 °F 12.6 °F 13.1 °F 71% 30.71 in 10.0 mi North 6.9 mph - N/A   Clear
2:35 AM 21.2 °F 16.4 °F 12.4 °F 69% 30.71 in 10.0 mi North 3.5 mph - N/A   Clear
2:55 AM 20.8 °F 16.0 °F 12.0 °F 69% 30.71 in 10.0 mi North 3.5 mph - N/A   Clear
3:15 AM 20.3 °F 15.4 °F 12.0 °F 70% 30.70 in 10.0 mi North 3.5 mph - N/A   Clear
3:35 AM 19.4 °F - 12.4 °F 74% 30.70 in 10.0 mi Calm Calm - N/A   Clear
3:55 AM 19.0 °F 13.9 °F 12.9 °F 77% 30.70 in 10.0 mi WNW 3.5 mph - N/A   Clear
4:15 AM 18.5 °F 13.3 °F 13.5 °F 81% 30.70 in 10.0 mi NNW 3.5 mph - N/A   Clear
4:35 AM 19.0 °F 11.1 °F 13.5 °F 79% 30.70 in 10.0 mi North 5.8 mph - N/A   Clear
4:55 AM 18.9 °F 12.1 °F 13.5 °F 79% 30.71 in 10.0 mi North 4.6 mph - N/A   Clear
5:15 AM 19.2 °F 11.3 °F 13.3 °F 78% 30.71 in 10.0 mi North 5.8 mph - N/A   Clear
5:35 AM 19.2 °F 12.5 °F 13.5 °F 78% 30.72 in 10.0 mi NNW 4.6 mph - N/A   Clear
5:55 AM 18.5 °F 13.3 °F 13.1 °F 79% 30.72 in 10.0 mi North 3.5 mph - N/A   Clear
6:15 AM 18.7 °F 10.6 °F 13.1 °F 79% 30.73 in 10.0 mi NNW 5.8 mph - N/A   Clear
6:35 AM 18.5 °F 11.7 °F 13.1 °F 79% 30.74 in 10.0 mi NW 4.6 mph - N/A   Clear
6:55 AM 18.5 °F 13.3 °F 13.3 °F 80% 30.74 in 10.0 mi NW 3.5 mph - N/A   Clear
7:15 AM 19.4 °F 14.3 °F 14.2 °F 80% 30.74 in 10.0 mi NNW 3.5 mph - N/A   Clear
7:35 AM 20.3 °F 10.6 °F 14.2 °F 77% 30.74 in 10.0 mi North 8.1 mph - N/A   Clear
7:55 AM 20.3 °F 10.6 °F 13.8 °F 76% 30.75 in 10.0 mi North 8.1 mph - N/A   Clear
8:15 AM 21.2 °F 10.1 °F 13.6 °F 73% 30.75 in 10.0 mi North 10.4 mph - N/A   Clear
8:35 AM 21.9 °F 13.4 °F 14.2 °F 72% 30.76 in 10.0 mi NNW 6.9 mph - N/A   Clear
8:55 AM 22.3 °F 13.9 °F 12.9 °F 67% 30.76 in 10.0 mi North 6.9 mph - N/A   Clear
9:15 AM 22.6 °F 14.3 °F 13.6 °F 68% 30.75 in 10.0 mi North 6.9 mph - N/A   Clear
9:35 AM 23.2 °F 17.2 °F 12.9 °F 65% 30.75 in 10.0 mi NE 4.6 mph - N/A   Clear
9:55 AM 24.8 °F 19.1 °F 12.6 °F 60% 30.74 in 10.0 mi NE 4.6 mph - N/A   Clear
10:15 AM 25.5 °F 18.7 °F 12.4 °F 58% 30.74 in 10.0 mi NNE 5.8 mph - N/A   Clear
10:35 AM 26.2 °F 22.1 °F 12.2 °F 55% 30.72 in 10.0 mi NE 3.5 mph - N/A   Clear
10:55 AM 27.0 °F 21.6 °F 12.6 °F 55% 30.71 in 10.0 mi ENE 4.6 mph - N/A   Clear
11:15 AM 27.9 °F 24.0 °F 12.6 °F 53% 30.69 in 10.0 mi NE 3.5 mph - N/A   Clear
11:35 AM 28.8 °F - 12.6 °F 51% 30.67 in 10.0 mi Calm Calm - N/A   Clear
11:55 AM 29.3 °F - 12.4 °F 49% 30.67 in 10.0 mi Calm Calm - N/A   Clear
12:15 PM 30.0 °F 26.5 °F 11.5 °F 46% 30.66 in 10.0 mi ESE 3.5 mph - N/A   Clear
12:35 PM 29.3 °F - 9.9 °F 44% 30.65 in 10.0 mi Calm Calm - N/A   Clear
12:55 PM 30.2 °F 26.7 °F 9.9 °F 43% 30.63 in 10.0 mi North 3.5 mph - N/A   Clear
1:15 PM 30.9 °F - 8.1 °F 38% 30.63 in 10.0 mi Calm Calm - N/A   Clear
1:35 PM 31.5 °F 26.8 °F 7.5 °F 37% 30.61 in 10.0 mi NE 4.6 mph - N/A   Clear
1:55 PM 32.0 °F - 7.0 °F 35% 30.61 in 10.0 mi Calm Calm - N/A   Clear
2:15 PM 32.0 °F 28.7 °F 8.1 °F 37% 30.61 in 10.0 mi NE 3.5 mph - N/A   Clear
2:35 PM 31.8 °F - 6.8 °F 35% 30.60 in 10.0 mi Calm Calm - N/A   Clear
2:55 PM 31.8 °F - 7.0 °F 35% 30.61 in 10.0 mi Calm Calm - N/A   Clear
3:15 PM 32.0 °F - 7.3 °F 36% 30.60 in 10.0 mi Calm Calm - N/A   Clear
3:35 PM 31.5 °F - 6.8 °F 35% 30.60 in 10.0 mi Calm Calm - N/A   Clear
3:55 PM 31.1 °F - 6.8 °F 36% 30.59 in 10.0 mi Calm Calm - N/A   Clear
4:15 PM 30.7 °F - 9.0 °F 40% 30.58 in 10.0 mi Calm Calm - N/A   Clear
4:35 PM 30.0 °F - 11.3 °F 46% 30.57 in 10.0 mi Calm Calm - N/A   Clear
4:55 PM 29.7 °F - 9.3 °F 43% 30.57 in 10.0 mi Calm Calm - N/A   Clear
5:15 PM 29.1 °F - 8.6 °F 42% 30.57 in 10.0 mi Calm Calm - N/A   Clear
5:35 PM 27.7 °F - 16.5 °F 63% 30.57 in 10.0 mi Calm Calm - N/A   Clear
5:55 PM 27.5 °F - 14.2 °F 57% 30.56 in 10.0 mi Calm Calm - N/A   Clear
6:15 PM 28.2 °F - 13.6 °F 54% 30.55 in 10.0 mi Calm Calm - N/A   Clear
6:35 PM 27.9 °F - 13.8 °F 56% 30.55 in 10.0 mi Calm Calm - N/A   Clear
6:55 PM 27.1 °F - 15.6 °F 62% 30.56 in 10.0 mi Calm Calm - N/A   Clear
7:15 PM 26.8 °F - 16.5 °F 65% 30.55 in 10.0 mi Calm Calm - N/A   Clear
7:35 PM 27.0 °F - 17.6 °F 68% 30.54 in 10.0 mi Calm Calm - N/A   Clear
7:55 PM 26.2 °F - 19.2 °F 75% 30.53 in 10.0 mi Calm Calm - N/A   Clear
8:15 PM 26.4 °F - 19.6 °F 75% 30.53 in 10.0 mi Calm Calm - N/A   Clear
8:35 PM 26.4 °F - 21.4 °F 81% 30.53 in 10.0 mi Calm Calm - N/A   Clear
8:55 PM 26.6 °F - 21.7 °F 82% 30.53 in 10.0 mi Calm Calm - N/A   Clear
9:15 PM 26.6 °F - 19.8 °F 75% 30.53 in 10.0 mi Calm Calm - N/A   Clear
9:35 PM 26.2 °F - 21.2 °F 81% 30.52 in 10.0 mi Calm Calm - N/A   Clear
9:55 PM 26.8 °F - 21.2 °F 79% 30.51 in 10.0 mi Calm Calm - N/A   Clear
10:15 PM 27.5 °F 23.6 °F 19.9 °F 73% 30.50 in 10.0 mi SE 3.5 mph - N/A   Clear
10:35 PM 28.2 °F 24.4 °F 18.5 °F 67% 30.50 in 10.0 mi SE 3.5 mph - N/A   Clear
10:55 PM 28.4 °F 23.3 °F 18.3 °F 66% 30.50 in 10.0 mi SE 4.6 mph - N/A   Clear
11:15 PM 28.9 °F 25.2 °F 17.1 °F 61% 30.48 in 10.0 mi ESE 3.5 mph - N/A   Clear
11:35 PM 29.1 °F - 17.8 °F 63% 30.47 in 10.0 mi Calm Calm - N/A   Clear
11:55 PM 28.9 °F 22.8 °F 17.6 °F 63% 30.46 in 10.0 mi ESE 5.8 mph - N/A   Clear